Theta_e
304 304 303 303 303 304 303 303 304 304 304 306 306 305 305 304 303 304 303 304 306 305
303 302 302 302 303 302 303 303 305 303 303 304 304 306 304 302 304 305 304 304 305 304
300 301 302 301 301 301 302 303 303 302 303 303 303 304 304 304 305 305 305 305 305 305
300 300 300 300 300 301 301 302 302 303 303 303 304 304 304 305 305 304 303 304 304 304
299 300 299 299 300 301 301 302 302 303 303 304 304 302 303 304 303 303 302 303 303 303
299 299 299 300 300 301 302 302 302 303 303 304 303 301 301 304 303 303 303 303 303 302
299 299 300 300 301 302 302 302 302 303 303 303 302 301 301 303 303 303 304 301 300 300
300 301 301 301 302 302 302 302 302 303 302 300 301 301 301 302 303 302 301 298 298 299
301 301 301 301 302 302 301 301 302 300 300 299 299 300 301 304 302 303 298 296 297 298
301 301 301 300 300 300 300 300 303 301 300 298 299 299 299 302 303 301 298 298 297 297
301 300 300 298 297 298 298 299 300 302 302 300 300 299 298 300 305 301 299 298 297 298
301 299 297 296 296 297 296 296 297 302 302 300 299 298 297 299 303 301 300 299 298 300
301 297 295 295 295 295 296 297 299 298 298 299 298 297 296 298 303 299 298 298 298 299
298 296 295 295 295 294 295 296 296 298 299 299 299 298 296 296 299 298 297 296 298 299
Wind_Speed
5 3 4 4 5 4 3 4 6 6 6 7 7 6 5 5 5 5 6 8 6 5
5 5 4 6 5 4 5 5 5 5 6 6 7 6 6 5 5 6 5 6 6 5
6 5 5 5 6 6 6 4 6 6 6 7 6 5 5 4 5 6 6 5 6 5
5 6 5 5 6 6 5 5 6 6 6 5 5 5 5 6 6 8 7 6 6 6
6 6 6 6 6 5 6 5 5 6 5 4 4 4 5 6 5 6 7 7 7 8
6 5 6 6 6 5 5 5 5 4 4 4 4 5 4 4 4 4 4 6 7 8
6 6 6 6 6 5 5 5 5 4 4 3 4 5 5 6 5 5 4 6 7 8
6 5 5 5 5 5 4 4 4 4 4 5 4 5 7 6 5 3 5 5 7 8
5 5 5 5 5 5 5 5 4 5 5 6 5 12 13 9 4 2 4 6 7 8
5 4 4 5 6 6 6 4 4 3 4 5 6 13 14 12 3 3 3 5 7 8
5 5 5 6 6 5 4 5 4 5 6 5 5 13 14 13 3 2 3 4 7 8
4 4 6 6 6 5 4 4 5 6 6 6 7 12 13 10 5 3 4 6 7 8
4 5 5 5 5 4 3 5 5 5 6 8 8 11 13 9 3 4 5 6 7 10
5 4 4 4 3 4 5 5 5 6 4 5 6 8 12 9 5 4 4 5 6 6
Wind_Direction
358 346 338 335 312 285 284 286 295 301 305 309 308 299 309 312 299 288 291 296 299 301
338 337 318 304 289 288 287 285 277 297 304 306 307 308 318 312 309 311 300 303 307 302
320 310 295 289 285 285 279 279 302 304 301 305 311 317 315 322 330 331 333 338 324 332
307 303 298 290 288 285 295 297 294 291 295 301 314 326 335 351 359 360 351 347 349 356
298 307 303 298 294 299 296 300 293 291 285 298 311 335 349 353 354 2 357 344 353 355
311 316 316 307 308 309 312 303 305 288 291 317 331 336 334 324 333 341 333 337 349 348
314 315 309 311 323 322 311 305 310 319 336 349 330 330 334 322 319 334 349 5 0 351
317 319 326 336 328 319 323 318 330 8 16 3 344 343 331 314 303 326 357 6 3 348
322 329 335 335 330 339 344 358 12 17 11 2 353 340 344 334 281 5 23 357 359 340
326 338 333 339 352 356 348 341 351 347 350 352 354 352 354 360 356 60 34 359 353 348
334 326 349 9 360 348 355 356 338 351 359 351 356 357 359 351 346 68 15 355 354 341
332 350 9 2 354 3 358 359 358 1 1 2 348 353 356 355 348 58 358 7 353 350
356 25 18 359 359 345 343 348 354 357 4 358 351 354 351 358 14 29 5 0 346 341
43 46 21 7 3 355 355 1 344 350 335 345 355 354 355 7 38 25 12 359 351 345